Regional Weather Roundup
Issued by NWS

Home | Current Version | Previous Version | Graphics & Text | Print | Product List | Glossary On
Versions: 1 2 3 4 5 6 7 8 9 10 11 12 13 14 15 16 17 18 19 20 21 22 23 24 25 26 27 28 29 30 31 32 33 34 35 36 37 38 39 40 41 42 43 44 45 46 47 48 49 50
000
ASUS43 KDTX 220910
RWRMI
MICHIGAN HOURLY REGIONAL WEATHER ROUNDUP
NATIONAL WEATHER SERVICE DETROIT/PONTIAC MI
500 AM EDT SUN APR 22 2018

NOTE: "FAIR" INDICATES FEW OR NO CLOUDS BELOW 12,000 FEET WITH NO
SIGNIFICANT WEATHER AND/OR OBSTRUCTION TO VISIBILITY.

MIZ047>049-052>055-059>063-066>070-074>076-081>083-221000-
SOUTHEAST LOWER MICHIGAN

CITY           SKY/WX    TMP DP  RH WIND       PRES   REMARKS
ADRIAN         FAIR      35  23  61 NE3       30.37S
ALMA           FAIR      31  30  96 CALM      30.38F
ANN ARBOR      FAIR      31  27  85 CALM      30.37F
BAD AXE        FAIR      32  26  77 CALM      30.40S
CARO           FAIR      28  26  89 CALM      30.39S
DETROIT CITY   FAIR      34  25  69 CALM      30.39F
DETROIT        FAIR      37  25  61 CALM      30.39S
FLINT          FAIR      32  26  78 CALM      30.39S
GROSSE ILE     FAIR      34  27  75 NE3       30.37S
HILLSDALE      FAIR      32  21  64 S3        30.36R
HOWELL         FAIR      31  28  88 CALM      30.37F

CITY           SKY/WX    TMP DP  RH WIND       PRES   REMARKS
JACKSON        FAIR      35  23  61 NE5       30.36F WCI  31
LAMBERTVILLE   FAIR      38  27  66 NE3       30.37F
LANSING        FAIR      35  29  78 CALM      30.39S
LAPEER         FAIR      29  27  91 CALM      30.39F
MASON          FAIR      35  24  62 CALM      30.38R
MONROE         FAIR      32  28  84 CALM      30.37S
MT. CLEMENS    FAIR      31  31  99 CALM        N/A
PONTIAC        FAIR      31  27  85 CALM      30.37F
PORT HOPE        N/A     31  25  78 CALM      30.38S
PORT HURON     FAIR      28  27  93 CALM      30.40F
TRI CITIES     FAIR      37  29  72 CALM      30.39F
MIDLAND        FAIR      29  28  98 CALM      30.39S
TROY           FAIR      35  24  62 CALM      30.40S
SAGINAW HB     FAIR      32  28  86 CALM      30.39S
$$
MIZ043>046-050>051-056>058-064>065-071>073-077>080-221000-
SOUTHWEST LOWER MICHIGAN

CITY           SKY/WX    TMP DP  RH WIND       PRES   REMARKS
BATTLE CREEK   FAIR      37  27  67 CALM      30.37S
BENTON HARBOR  CLOUDY    42  29  59 CALM      30.35F
BIG RAPIDS     FAIR      29  20  69 CALM      30.37S
COLDWATER      CLOUDY    43  19  38 CALM      30.36S
FREMONT        FAIR      32  19  58 CALM      30.37R
HOLLAND        FAIR      33  29  85 CALM      30.37S
GRAND RAPIDS   FAIR      36  26  67 E3        30.37R
IONIA          FAIR      36  27  71 SE3       30.37S
KALAMAZOO      MOCLDY    43  30  60 CALM      30.37R
LUDINGTON      FAIR      27  23  87 CALM      30.37S
MARSHALL       FAIR      33  26  76 CALM      30.36S
MOUNT PLEASANT FAIR      34  33  96 CALM      30.38S
MUSKEGON       FAIR      31  21  66 CALM      30.37S
SOUTH HAVEN    FAIR      37  29  71 CALM      30.35F
$$
MIZ016>042-221000-
NORTHERN LOWER MICHIGAN

CITY           SKY/WX    TMP DP  RH WIND       PRES   REMARKS
ALPENA         FAIR      25  23  92 CALM      30.40S
BEAVER ISLAND  FAIR      27  24  89 CALM      30.39S
BELLAIRE       FAIR      25  23  93 CALM      30.40S
CADILLAC       FAIR      25  20  81 CALM      30.36S
CHARLEVOIX     FAIR      29  24  81 E3        30.42S
FRANKFORT      FAIR      28  22  78 CALM      30.38F
GAYLORD        FAIR      28  21  75 CALM      30.38S
GRAYLING       FAIR      23  19  85 CALM      30.38S
HARBOR SPRINGS FAIR      29  20  70 CALM      30.39S
HOUGHTON LAKE  FAIR      27  24  89 E3        30.38S
MANISTEE       FAIR      24  22  91 E7        30.38S WCI  16
OSCODA         FAIR      25  19  78 CALM      30.40S
PELLSTON       FAIR      26  22  84 CALM      30.40S
ROGERS CITY    FAIR      27  24  89 CALM      30.41S
TRAVERSE CITY  FAIR      29  23  78 CALM      30.38S
$$
MIZ007>008-015-221000-
EASTERN UPPER MICHIGAN

CITY           SKY/WX    TMP DP  RH WIND       PRES   REMARKS
KINROSS        FAIR      30  20  66 CALM      30.39S
MACKINAC ISLAN FAIR      34  17  48 W5        30.39S WCI  30
NEWBERRY       FAIR      28  27  94 SW6       30.38R WCI  22
S. S. MARIE    FAIR      31  22  69 E3        30.38S
MUNISING         N/A     26  22  84 S8        30.36F WCI  18
$$
MIZ004>006-011>014-085-221000-
CENTRAL UPPER MICHIGAN

CITY           SKY/WX    TMP DP  RH WIND       PRES   REMARKS
MANISTIQUE     FAIR      25  24  94 CALM      30.38R
ESCANABA       FAIR      23  22  96 CALM      30.37S
MENOMINEE      FAIR      29  24  82 CALM      30.38S
SAWYER-GWINN   FAIR      26  19  74 CALM      30.34S
$$
MIZ001>003-009>011-084-221000-
WESTERN UPPER MICHIGAN

CITY           SKY/WX    TMP DP  RH WIND       PRES   REMARKS
IRON MOUNTAIN  FAIR      27  21  78 CALM      30.33S
HOUGHTON       FAIR      33  14  45 E5        30.34S WCI  29
COPPER HARBOR    N/A     37  13  37 SE3       30.35S
IRONWOOD       FAIR      26  22  84 CALM      30.34S
$$

ABBREVIATIONS USED IN REMARKS
   TC - TEMPERATURE IN CELSIUS
  WCI - WIND CHILL INDEX
   HX - HEAT INDEX
  VSB - VISIBILITY




USA.gov is the U.S. government's official web portal to all federal, state and local government web resources and services.